Regional Weather Roundup
Issued by NWS

Home | Current Version | Previous Version | Text Only | Print | Product List | Glossary On
Versions: 1 2 3 4 5 6 7 8 9 10 11 12 13 14 15 16 17 18 19 20 21 22 23 24 25 26 27 28 29 30 31 32 33 34 35 36 37 38 39 40 41 42 43 44 45 46 47 48 49 50
243
ASUS44 KFWD 151801
RWRTX
NORTH TEXAS HOURLY WEATHER ROUNDUP
NATIONAL WEATHER SERVICE FORT WORTH TX
1200 PM CST FRI DEC 15 2017

NOTE: "FAIR" INDICATES FEW OR NO CLOUDS BELOW 12,000 FEET WITH NO
SIGNIFICANT WEATHER AND/OR OBSTRUCTIONS TO VISIBILITY.

TXZ118-119-151900-
DALLAS/FORT WORTH METROPLEX

CITY           SKY/WX    TMP DP  RH WIND       PRES   REMARKS
DFW AIRPORT    MOSUNNY   53  28  38 NW7       30.29F
6HR MIN TEMP:  38; 6HR MAX TEMP:  53;

DALLAS LOVE    MOSUNNY   52  31  44 NW9       30.31F
6HR MIN TEMP:  37; 6HR MAX TEMP:  52;

FTW MEACHAM    SUNNY     52  29  41 NW8       30.32F
6HR MIN TEMP:  36; 6HR MAX TEMP:  52;

DAL-EXECUTIVE  SUNNY     53  29  39 N10       30.30S
6HR MIN TEMP:  36; 6HR MAX TEMP:  53;

FTW-ALLIANCE   MOSUNNY   52  27  38 VRB3      30.31S
6HR MIN TEMP:  31; 6HR MAX TEMP:  52;

FTW-NAS-JRB    MOSUNNY   50  28  42 W5        30.33F
6HR MIN TEMP:  39; 6HR MAX TEMP:  51;

ARLINGTON      SUNNY     50  27  40 N10       30.31F
6HR MIN TEMP:  35; 6HR MAX TEMP:  51;

GRAND PRAIRIE  SUNNY     50  28  43 N8        30.33F
ADDISON        SUNNY     50  28  43 N6        30.30F
MESQUITE       SUNNY     52  28  40 NW9       30.32F
LANCASTER      SUNNY     51  28  40 N8        30.32F
6HR MIN TEMP:  31; 6HR MAX TEMP:  51;

$$

TXZ091>094-102>105-117-120-121-131>134-151900-
NORTH CENTRAL TEXAS

CITY           SKY/WX    TMP DP  RH WIND       PRES   REMARKS
SHRMAN/DENISON NOT AVBL
GAINESVILLE    SUNNY     48  26  41 N8        30.31F
6HR MIN TEMP:  32; 6HR MAX TEMP:  49;

BOWIE          SUNNY     47  27  45 NW5       30.30F
6HR MIN TEMP:  30; 6HR MAX TEMP:  47;

BRIDGEPORT     SUNNY     50  27  40 N5        30.34F
6HR MIN TEMP:  33; 6HR MAX TEMP:  50;

DECATUR        SUNNY     50  22  33 NW7       30.29F
DENTON         SUNNY     51  28  41 N12G18    30.31S
6HR MIN TEMP:  32; 6HR MAX TEMP:  51;

MCKINNEY       SUNNY     50  31  48 N9        30.30F
6HR MIN TEMP:  30; 6HR MAX TEMP:  50;

BONHAM         SUNNY     49  31  49 N8        30.28F
6HR MIN TEMP:  29; 6HR MAX TEMP:  49;

ROCKWALL       SUNNY     49  32  51 NW6       30.31S
6HR MIN TEMP:  35; 6HR MAX TEMP:  49;

TERRELL        SUNNY     53  29  39 N8        30.30F
6HR MIN TEMP:  29; 6HR MAX TEMP:  53;

WAXAHACHIE     SUNNY     52  30  43 NW12      30.32F
6HR MIN TEMP:  35; 6HR MAX TEMP:  52;

CLEBURNE       SUNNY     52  25  35 N15       30.33F
GRANBURY       SUNNY     53  28  38 NW6       30.35S
6HR MIN TEMP:  32; 6HR MAX TEMP:  53;

$$

TXZ083>090-098>101-113>116-127>130-139>142-154-155-151900-
WESTERN NORTH TEXAS

CITY           SKY/WX    TMP DP  RH WIND       PRES   REMARKS
WICHITA FALLS  MOSUNNY   49  25  39 NW9       30.29F
6HR MIN TEMP:  30; 6HR MAX TEMP:  49;

WF-KICKAPOO    SUNNY     48  26  42 N5        30.33F
6HR MIN TEMP:  33; 6HR MAX TEMP:  48;

VERNON         SUNNY     48  20  32 CALM      30.30F
6HR MIN TEMP:  27; 6HR MAX TEMP:  56;

ABILENE        SUNNY     45  26  47 CALM      30.35F
6HR MIN TEMP:  26; 6HR MAX TEMP:  46;

ABILENE-DYESS  SUNNY     47  26  43 CALM      30.34F
6HR MIN TEMP:  31; 6HR MAX TEMP:  48;

BRECKENRIDGE   SUNNY     51  24  35 CALM      30.34F
6HR MIN TEMP:  29; 6HR MAX TEMP:  51;

CISCO          SUNNY     48  25  40 VRB5      30.35S
RANGER         SUNNY     49  25  39 NE5       30.33F
6HR MIN TEMP:  31; 6HR MAX TEMP:  72;

MINERAL WELLS  SUNNY     52  24  33 N8        30.32S
6HR MIN TEMP:  31; 6HR MAX TEMP:  52;

STEPHENVILLE   SUNNY     52  23  32 N10G16    30.34F
6HR MIN TEMP:  33; 6HR MAX TEMP:  52;

COMANCHE       SUNNY     50  27  41 N9        30.34F
6HR MIN TEMP:  34; 6HR MAX TEMP:  50;

BROWNWOOD      SUNNY     52  23  32 N3        30.33F
COLEMAN          N/A     51  24  34 MISG      30.33F
6HR MIN TEMP:  34; 6HR MAX TEMP:  51;

$$

TXZ143>147-156>162-174-175-151900-
CENTRAL TEXAS

CITY           SKY/WX    TMP DP  RH WIND       PRES   REMARKS
WACO           SUNNY     55  27  34 N12       30.33F
6HR MIN TEMP:  31; 6HR MAX TEMP:  56;

WACO-TSTC      SUNNY     55  27  33 N14       30.33F
WACO-MCGREGOR  SUNNY     53  30  41 N9        30.33F
6HR MIN TEMP:  32; 6HR MAX TEMP:  53;

HILLSBORO      SUNNY     54  28  37 N12       30.31F
6HR MIN TEMP:  31; 6HR MAX TEMP:  54;

CORSICANA      CLOUDY    53  30  41 N10       30.32F
6HR MIN TEMP:  31; 6HR MAX TEMP:  53;

MEXIA          CLOUDY    50  29  44 N6        30.31F
6HR MIN TEMP:  36; 6HR MAX TEMP:  50;

HEARNE         CLOUDY    50  30  45 CALM      30.34F
6HR MIN TEMP:  40; 6HR MAX TEMP:  51;

CAMERON        PTSUNNY   52  31  45 N3        30.34S
6HR MIN TEMP:  41; 6HR MAX TEMP:  52;

TEMPLE         SUNNY     54  29  38 N13       30.34F
6HR MIN TEMP:  32; 6HR MAX TEMP:  54;

KILLEEN        SUNNY     54  27  35 N9        30.31F
6HR MIN TEMP:  36; 6HR MAX TEMP:  54;

KILLEEN-SKYLRK SUNNY     54  29  38 NE10      30.33F
6HR MIN TEMP:  39; 6HR MAX TEMP:  54;

FORT HOOD      SUNNY     54  28  36 N9        30.29F
6HR MIN TEMP:  38; 6HR MAX TEMP:  54;

GATESVILLE     SUNNY     54  25  32 NW13      30.34F
HAMILTON       SUNNY     52  26  36 N13       30.33F
6HR MIN TEMP:  35; 6HR MAX TEMP:  53;

LAMPASAS       SUNNY     53  25  34 N9        30.31F
6HR MIN TEMP:  38; 6HR MAX TEMP:  53;

$$

TXZ095>097-106>112-122>126-135>138-148>153-164>167-151900-
EAST TEXAS

CITY           SKY/WX    TMP DP  RH WIND       PRES   REMARKS
PARIS          SUNNY     49  34  56 NW9       30.27F
6HR MIN TEMP:  27; 6HR MAX TEMP:  49;

SULPHUR SPRNGS CLOUDY    49  34  56 NW3       30.31F
6HR MIN TEMP:  31; 6HR MAX TEMP:  49;

MOUNT PLEASANT PTSUNNY   50  33  52 W3        30.29F
6HR MIN TEMP:  27; 6HR MAX TEMP:  50;

GILMER         MOSUNNY   48  30  49 SW3       30.29F
6HR MIN TEMP:  31; 6HR MAX TEMP:  48;

MINEOLA        SUNNY     50  34  53 CALM      30.29F
TYLER          MOSUNNY   48  30  49 W7        30.29F
6HR MIN TEMP:  32; 6HR MAX TEMP:  48;

LONGVIEW       CLOUDY    51  30  44 W5        30.28F
6HR MIN TEMP:  34; 6HR MAX TEMP:  51;

MARSHALL       CLOUDY    50  29  44 W6        30.31F
6HR MIN TEMP:  33; 6HR MAX TEMP:  50;

ATHENS         PTSUNNY   46  30  53 N5        30.30F
PALESTINE      CLOUDY    51  30  45 W6        30.33S
JACKSONVILLE   CLOUDY    48  31  52 CALM      30.32S
HENDERSON      CLOUDY    50  29  44 CALM      30.30F
6HR MIN TEMP:  35; 6HR MAX TEMP:  51;

CENTER         MOCLDY    47  27  44 CALM      30.31F
6HR MIN TEMP:  36; 6HR MAX TEMP:  47;

NACOGDOCHES    MOSUNNY   50  30  46 NW3       30.31F
6HR MIN TEMP:  39; 6HR MAX TEMP:  51;

LUFKIN         PTSUNNY   52  31  44 CALM      30.30F
6HR MIN TEMP:  41; 6HR MAX TEMP:  54;

$$

SUPPLEMENTAL OBSERVATIONS (NWS FORT WORTH AREA)

CITY           SKY/WX    TMP DP  RH WIND       PRES   REMARKS
$$

SUPPLEMENTAL OBSERVATIONS (NWS NORMAN AREA)

CITY           SKY/WX    TMP DP  RH WIND       PRES   REMARKS
GOODLETT         N/A     49  21  33 SW6       30.29F
ODELL            N/A     48  24  38 W6        30.30F
CROWELL          N/A     49  24  37 NW5       30.31F
KNOX CITY        N/A     51  24  34 S2        30.33F
SEYMOUR          N/A     48  26  41 E1        30.32F
$$

SUPPLEMENTAL



USA.gov is the U.S. government's official web portal to all federal, state and local government web resources and services.